Weather in Lome

Togo     6°10′05″N   1°14′36″E
temp.,
°C
wind,
m/s
gust,
m/s
humid.,
%
clouds,
%
prec.,
mm/h
press.,
hPa
HPBL,
m
24 july, sat
sat2400:00+24sw37805 0.0 1015564
03:00+23wsw388238 0.0 1014552
06:00+23wsw3885100 0.0 1015539
09:00+27sw4662100 0.0 10161136
12:00+28ssw565697 0.0 10151336
15:00+29ssw675375 0.0 10131185
18:00+26ssw686372 0.0 1013729
21:00+25sw486897 0.0 1015672
25 july, sun
sun2500:00+24sw377158 0.0 1015528
03:00+24sw37765 0.0 1014437
06:00+23sw367920 0.0 1015361
09:00+28sw465811 0.0 10161078
12:00+30ssw6648100 0.0 10141619
15:00+29ssw78516 0.0 10121226
18:00+26ssw68676 0.0 1013721
21:00+25ssw577215 0.0 1015682
26 july, mon
mon2600:00+24sw47755 0.0 1015573
03:00+23sw36795 0.0 1014460
06:00+23sw387910 0.0 1015556
09:00+27sw4561100 0.0 10171031
12:00+31ssw554838 0.0 10151509
15:00+30ssw665038 0.0 10121311
18:00+26ssw676760 0.0 1013667
21:00+25ssw577299 0.0 1015627
27 july, tue
tue2700:00+24sw487652 0.0 1014656
03:00+24sw487840 0.0 1013745
06:00+24sw4876100 0.0 1014822
09:00+26wsw5764100 0.0 10161030
12:00+29ssw675391 0.0 10141495
15:00+29ssw665193 0.0 10131173
18:00+26ssw575982 0.0 1013807
21:00+25ssw596696 0.0 1015732
28 july, wed
wed2800:00+25sw4970100 0.0 1014761
03:00+24sw4871100 0.0 1012706
06:00+24sw3775100 0.0 1014651
09:00+26sw466782 0.0 1015810
12:00+29ssw564894 0.0 10141412
15:00+29s564999 0.0 1012894
18:00+27ssw475983 0.0 1013774
21:00+25sw356863 0.0 1015382